Location: Nairn
(57.5833°N, 3.8667°W)
Time: 22:32:33
(UTC+00:00)

S-56A Canister/Altair - Visible Passes

Search period start: 25 November 2020 00:00
Search period end: 05 December 2020 00:00
Orbit: 633 x 2499 km, 38.9° (Epoch: 25 November)

Date Brightness Start Highest point End Pass type
(mag) Time Alt. Az. Time Alt. Az. Time Alt. Az.
27 Nov 10.8 20:28:39 10° SSW 20:30:00 12° SSW 20:30:00 12° SSW visible
28 Nov 10.6 19:55:30 10° SSW 19:59:13 15° S 19:59:13 15° S visible
29 Nov 10.5 19:22:22 10° SSW 19:28:10 16° SSE 19:28:23 16° SSE visible
29 Nov 10.9 21:24:55 10° SW 21:25:49 12° SW 21:25:49 12° SW visible
30 Nov 10.5 18:49:17 10° SSW 18:55:23 16° SSE 18:57:33 15° SE visible
30 Nov 10.6 20:51:32 10° SW 20:54:58 17° SSW 20:54:58 17° SSW visible
01 Dec 10.5 18:16:14 10° S 18:22:34 16° SSE 18:26:40 12° SE visible
01 Dec 10.4 20:18:09 10° SW 20:24:06 21° S 20:24:06 21° S visible
02 Dec 10.7 17:43:15 10° S 17:49:44 16° SSE 17:55:14 10° ESE visible
02 Dec 10.2 19:44:46 10° SW 19:52:52 23° S 19:53:12 23° S visible
02 Dec 10.9 21:49:18 10° WSW 21:50:38 13° SW 21:50:38 13° SW visible
03 Dec 10.8 17:10:22 10° S 17:16:51 16° SSE 17:22:26 10° ESE visible
03 Dec 10.2 19:11:23 10° SW 19:20:02 24° S 19:22:17 22° SSE visible
03 Dec 10.7 21:15:44 10° WSW 21:19:43 18° SW 21:19:43 18° SW visible
04 Dec 11.0 16:37:36 10° S 16:43:56 15° SSE 16:49:30 10° ESE visible
04 Dec 10.3 18:38:02 10° SW 18:47:10 24° S 18:51:22 18° SE visible
04 Dec 10.4 20:42:09 10° WSW 20:48:47 23° SSW 20:48:47 23° SSW visible
